User: anonymous   Login
Location: Unspecified
(0.0000°N, 0.0000°E)
Time: 00:57:27
(UTC+00:00)
Language:

SHAONIAN XING - Orbit

View from above orbital plane
View from above orbital plane
View from above satellite
View from above satellite

Ground track
Ground track

The orbit data is extracted from the following two-line orbital elements,

1 43199U 18015H   21023.76575569  .00001952  00000-0  76866-4 0  9993
2 43199  97.4462 156.4062 0017314  47.1209  88.8139 15.26719095165568
Epoch (UTC): 23 January 2021 18:22:41
Eccentricity: 0.0017314
inclination: 97.4462°
perigee height: 474 km
apogee height: 497 km
right ascension of ascending node: 156.4062°
argument of perigee: 47.1209°
revolutions per day: 15.26719095
mean anomaly at epoch: 88.8139°
orbit number at epoch: 16556

The dashed part of the orbit path shows where the satellite is in the earth's shadow,  

DLR